Starlink 30332

operational
NORAD ID: 57700 Int'l Des: 2023-129 Owner: SPXS Country: US Constellation: starlink
LEOCIRCULAR

About Starlink 30332

Description loading...

Live Position

Loading 3D Globe...

Upcoming Passes

Altitude History

Altitude vs Time

uPlot chart will show altitude changes over time

Two-Line Element Set

1 57700U 23129C 26037.08514545 .00000691 00000-0 66215-4 0 9996
2 57700 43.0054 291.7371 0001572 267.6291 92.4371 15.02536215135763
Epoch: Feb 6, 2026 • Age: 8 hours

Current Status

Altitude 563.7 km
Velocity 7.58 km/s
Sub-Earth Point -22.26°S, 20.55°W
Launch Date Aug 27, 2023
Age 2.4 years
Type internet

Technical Details

Classification Payload
Mass 730.00 kg
Dry Mass 700.00 kg
Total Mass 730.00 kg
Length 0.30 m
Diameter 4.10 m
Span 29.00 m
Shape Box + pan
Manufacturer SPXS
Bus Type Starlink V2M
Phase Status In Orbit
Owner/State SPXS/US

Large Constellations

Loading constellations...